Retour au catalogue

TAURUS 2

ActifCommunicationsVLEO
NORAD 66306·PAYLOAD·🇹🇷 Turkey
Ce nom de satellite n'a pas encore été confirmé par des sources officielles.

Lancé Nov 2, 2025 depuis Cape Canaveral Space Force Station

Loading…

Prochains Passages (prochaines 24 heures)

TLE

FraisSource: Space-Track

Époque: Sep 14, 2026, 14:46 UTC

1 66306U 25248P   26257.61561480  .00014163  00000-0  48828-3 0  9993
2 66306  45.4033 348.2284 0011072 229.3020 130.6908 15.29942999 48280

Suivez TAURUS 2 en temps réel avec AllMySat

Download on the App Store